This is the latest recevied weather packets stored in our database for station/object WW1TA. If no packets are shown the sender has not sent any weather packets the latest 10 day(s).
| Time | Temp. | Humidity | Pressure | Rain* | Wind** | Luminosity | Snow |
|---|---|---|---|---|---|---|---|
| 1777471107 | 19.44° C | 98% | 1018.1 hPa | 0 mm | - | 182 W/m² | - |
| 1777470804 | 19.44° C | 99% | 1018.2 hPa | 0 mm | - | 160 W/m² | - |
| 1777469893 | 19.44° C | 99% | 1018.4 hPa | 2.29 mm | - | 100 W/m² | - |
| 1777469283 | 18.89° C | 99% | 1018.8 hPa | 0 mm | - | 46 W/m² | - |
| 1777468979 | 19.44° C | 99% | 1018.8 hPa | 0.51 mm | - | 77 W/m² | - |
| 1777468674 | 19.44° C | 99% | 1018.8 hPa | 1.27 mm | - | 119 W/m² | - |
| 1777468372 | 19.44° C | 99% | 1018.8 hPa | 0.51 mm | - | 65 W/m² | - |
| 1777468068 | 19.44° C | 99% | 1019 hPa | 0 mm | - | 43 W/m² | - |
| 1777467764 | 19.44° C | 99% | 1019 hPa | 0.51 mm | - | 51 W/m² | - |
| 1777467459 | 19.44° C | 99% | 1018.8 hPa | 0.51 mm | - | 55 W/m² | - |
| 1777466246 | 19.44° C | 99% | 1018.9 hPa | 0 mm | - | 18 W/m² | - |
| 1777465942 | 18.89° C | 99% | 1018.8 hPa | 0.51 mm | - | 20 W/m² | - |
| 1777465638 | 18.89° C | 99% | 1018.8 hPa | 0.51 mm | - | 24 W/m² | - |
| 1777465334 | 18.89° C | 99% | 1018.8 hPa | 1.27 mm | - | 24 W/m² | - |
| 1777465033 | 18.89° C | 99% | 1018.8 hPa | 1.78 mm | - | 17 W/m² | - |
| 1777464728 | 18.89° C | 99% | 1018.8 hPa | 1.27 mm | - | 15 W/m² | - |
| 1777463820 | 18.89° C | 99% | 1018.6 hPa | 0 mm | - | 7 W/m² | - |
| 1777462604 | 18.89° C | 99% | 1018.4 hPa | 0.51 mm | - | 11 W/m² | - |
| 1777462299 | 18.89° C | 99% | 1018.3 hPa | 0 mm | - | 16 W/m² | - |
| 1777461995 | 18.89° C | 99% | 1018.2 hPa | 0 mm | - | 12 W/m² | - |
| 1777461693 | 18.89° C | 99% | 1018.2 hPa | 0 mm | - | 6 W/m² | - |
| 1777461393 | 18.89° C | 99% | 1018.2 hPa | 1.27 mm | - | 6 W/m² | - |
| 1777461089 | 18.89° C | 99% | 1018.2 hPa | 1.27 mm | - | 7 W/m² | - |
| 1777460785 | 18.89° C | 99% | 1018.3 hPa | 0 mm | - | 11 W/m² | - |
| 1777460176 | 18.33° C | 99% | 1018 hPa | 0 mm | - | 4 W/m² | - |
* Rain latest hour (hover to see other rain measurements)
** Current wind speed in m/s (hover to see current wind gust speed)